AirNav   Air Wisconsin Up To $57,000 Bonus
 
 1152 users online  

C74 Cassville Municipal Airport
Cassville, Wisconsin, USA

GOING TO CASSVILLE?


FAA INFORMATION EFFECTIVE 22 APRIL 2021

Location

FAA Identifier: C74
Lat/Long: 42-42-15.3750N 090-57-57.9850W
42-42.256250N 090-57.966417W
42.7042708,-90.9661069
(estimated)
Elevation: 627 ft. / 191 m (estimated)
Variation: 02E (1985)
From city: 1 mile SE of CASSVILLE, WI
Time zone: UTC -5 (UTC -6 during Standard Time)
Zip code: 53806

Airport Operations

Airport use: Open to the public
Activation date: 09/1951
Control tower: no
ARTCC: CHICAGO CENTER
FSS: GREEN BAY FLIGHT SERVICE STATION
NOTAMs facility: GRB (NOTAM-D service available)
Attendance: UNATNDD
Wind indicator: lighted
Segmented circle: no
Lights: SS-SR

Airport Communications

CTAF: 122.9

Nearby radio navigation aids

VOR radial/distance  VOR name  Freq  Var
DBQr324/21.4DUBUQUE VORTAC115.8004E

Airport Services

Parking: tiedowns
Airframe service: NONE
Powerplant service: NONE
Bottled oxygen: NONE
Bulk oxygen: NONE

Runway Information

Runway 11/29

Dimensions: 3000 x 50 ft. / 914 x 15 m
Surface: asphalt, in poor condition
NMRS CRACKS AND VEGETATION GROWING ENTIRE PAVEMENT LEN.
Weight bearing capacity: 
Single wheel: 21.0
Double wheel: 40.0
Runway edge lights: non-standard
THR LGTS EMIT GREEN ONLY.
RUNWAY 11  RUNWAY 29
Latitude: 42-42.344167N42-42.168333N
Longitude: 090-58.279000W090-57.653833W
Elevation: 627.0 ft.627.0 ft.
Traffic pattern: rightleft
Displaced threshold: no600 ft.
Markings: nonenone
Runway end identifier lights: nono
Obstructions: 40 ft. tree, 200 ft. from runway, 105 ft. left of centerline
30 FT BRUSH 0-200 FT FM THR 105 FT L.
15 ft. road, lighted, 200 ft. from runway, 90 ft. left of centerline
4 FT FENCE 70 FT L & ROAD 90 FT L OF EXTDD CNTRLN.

Airport Ownership and Management from official FAA records

Ownership: Publicly-owned
Owner: VILLAGE OF CASSVILLE
PO BOX 171
CASSVILLE, WI 53806
Phone 608-725-5180
Manager: AL MULLER
1202 JACK OAK ROAD
CASSVILLE, WI 53806
Phone (608) 725-5895

Airport Operational Statistics

Aircraft based on the field: 8
Single engine airplanes: 7
Ultralights: 1
    
Aircraft operations: avg 59/week *
74% local general aviation
24% transient general aviation
2% air taxi
* for 12-month period ending 26 September 2018

Additional Remarks

1350 FT X 20 FT TWY WEST END RWY 11.
200 FT STACK 3900 FT W RWY 11.
270 FT BLUFF PARALLELS RWY 800 FT N.
FOR WINTER COND & SNOW REMOVAL CALL AMGR.
FOR CD CTC CHICAGO ARTCC AT 630-906-8921.

Instrument Procedures

There are no published instrument procedures at C74.

Some nearby airports with instrument procedures:

KPDC - Prairie du Chien Municipal Airport (20 nm N)
KDBQ - Dubuque Regional Airport (21 nm SE)
KPVB - Platteville Municipal Airport (23 nm E)
KOVS - Boscobel Airport (30 nm NE)
KMXO - Monticello Regional Airport (30 nm S)
 
Loc | Ops | Rwys | IFR | FBO | Links
Com | Nav | Svcs | Stats | Notes
Area around C74 (Cassville Municipal Airport)
 
Road maps at: MapQuest Bing Google
 
Aerial photo
WARNING: Photo may not be current or correct
Aerial photo of C74 (Cassville Municipal Airport)
Do you have a better or more recent aerial photo of Cassville Municipal Airport that you would like to share? If so, please send us your photo.

 
Sectional chart

 
Airport distance calculator
Flying to Cassville Municipal Airport? Find the distance to fly.

From to C74

Sunrise and sunset
Times for 16-May-2021
 Local
(UTC-5)
 Zulu
(UTC)
Morning civil twilight05:0910:09
Sunrise05:4110:41
Sunset20:1901:19
Evening civil twilight20:5201:52

Current date and time
Zulu (UTC)  16-May-2021 22:40:13
Local (UTC-5)  16-May-2021 17:40:13
 
METAR
KPDC 
20nm N 
162215Z AUTO 18007KT 10SM CLR 21/09 A3009 RMK AO2 T02050089
KDBQ 
22nm SE 
162153Z 15008KT 10SM BKN035 19/11 A3012 RMK AO2 SLP198 T01890111
KPVB 
23nm E 
162215Z AUTO 17005KT 10SM CLR 20/12 A3012 RMK AO1 T01950118
KOVS 
29nm NE 
161053Z AUTO 00000KT 4SM BR OVC028 13/12 A3014 RMK AO2 SLP208 T01330122
KMXO 
31nm S 
162215Z AUTO 16008KT 10SM CLR 18/14 A3011 RMK AO2
KMRJ 
35nm E 
162215Z AUTO 15005KT 10SM CLR 21/08 A3012 RMK AO2
TAF
KDBQ 
22nm SE 
161737Z 1618/1718 15007KT P6SM SCT025 FM170200 14007KT P6SM SCT020 BKN035 FM170800 11009KT 5SM BR OVC020 PROB30 1709/1713 4SM -RA BR BKN009 FM171300 09013KT 4SM BR OVC007
NOTAMs
Click for the latest NOTAMs
NOTAMs are issued by the DoD/FAA and will open in a separate window not controlled by AirNav.

 

 
 

Where to Eat: Catering, Restaurants, Food shops

  
 Business Name 
 
 Contact 
 
 Services / Description 
 
Distance
 
Comments
  
Sand Bar 608-725-5055
no information available

If you are affiliated with Sand Bar and would like to show here your services, contact info, web link, logo, and more, click here
0.2 miles  
   write
 

Would you like to see your business listed on this page?

 If your business provides an interesting product or service to pilots, flight crews, aircraft, or users of the Cassville Municipal Airport, you should consider listing it here.  To start the listing process, click on the button below
 
Add a business
 

Other Pages about Cassville Municipal Airport

Page from the Wisconsin airport directory (PDF)
 
Update a link
 
Copyright © AirNav, LLC. All rights reserved. Privacy Policy  Contact